Location: Unspecified
(0.0000°N, 0.0000°E)
Time: 12:30:45
(UTC+00:00)

STARLINK-36491 - Pass Details

Date: 16 February 2026
Orbit: 482 x 484 km, 43.0° (Epoch: 8 March)

Event Time Altitude Azimuth Distance (km) Brightness Sun altitude
Rises 19:10:19 0° 212° (SSW) 2,535 ? -13.7°
Reaches altitude 10° 19:12:36 10° 203° (SSW) 1,656 ? -14.3°
Maximum altitude 19:16:07 37° 135° (SE) 768 ? -15.2°
Enters shadow 19:17:15 29° 96° (E) 903 ? -15.4°
